Weather History for Fort Myers, FL

Change the Weather History Date:

Tuesday, April 9, 2013

  Actual Average Record
Temperature  
Mean Temperature 75 °F 73 °F  
Max Temperature 87 °F 84 °F 92 °F (1948)
Min Temperature 63 °F 62 °F 46 °F (1971)
Degree Days  
Heating Degree Days 0 0  
Month to date heating degree days 0 0  
Since 1 July heating degree days 201 284  
Cooling Degree Days 10 8  
Month to date cooling degree days 77 68  
Year to date cooling degree days 459 429  
Growing Degree Days 25 (Base 50)    
Moisture  
Dew Point 61 °F    
Average Humidity 66    
Maximum Humidity 87    
Minimum Humidity 35    
Precipitation  
Precipitation 0.00 in 0.07 in 2.60 in (1916)
Month to date precipitation 1.26 0.71  
Year to date precipitation 4.52 7.68  
Sea Level Pressure  
Sea Level Pressure 30.10 in    
Wind  
Wind Speed 6 mph (ESE)    
Max Wind Speed 17 mph    
Max Gust Speed 23 mph    
Visibility 10 miles    
Events      
T = Trace of Precipitation, MM = Missing Value Source: NWS Daily Summary

Daily Weather History Graph

Daily Weather History Graph

Search for Another Location

Airport:

Trip Planner

Search our weather history database for the weather conditions in past years. The results will help you decide how hot, cold, wet, or windy it might be!

Date:

Astronomy

Apr. 09, 2013 Rise Set
Actual Time 7:09 AM EDT 7:48 PM EDT
Civil Twilight 6:46 AM EDT 8:12 PM EDT
Nautical Twilight 6:18 AM EDT 8:39 PM EDT
Astronomical Twilight 5:50 AM EDT 9:07 PM EDT
Moon 6:29 AM EDT (4/9) 7:22 PM EDT (4/9)
Length of Visible Light 13h 25m
Length of Day
12h 38m
Waning Crescent, 1% of the Moon is Illuminated
Apr 9
Waning Crescent
Apr 10
New
Apr 18
First Quarter
Apr 25
Full
May 2
Last Quarter

Hourly Weather History & Observations

Time (EDT) Temp. Heat Index Dew Point Humidity Pressure Visibility Wind Dir Wind Speed Gust Speed Precip Events Conditions
12:53 AM 69.1 °F - 60.1 °F 73% 30.13 in 10.0 mi SE 4.6 mph - N/A   Clear
1:53 AM 66.9 °F - 61.0 °F 81% 30.10 in 10.0 mi ESE 5.8 mph - N/A   Clear
2:53 AM 66.0 °F - 61.0 °F 84% 30.09 in 10.0 mi Calm Calm - N/A   Clear
3:53 AM 64.0 °F - 60.1 °F 87% 30.07 in 10.0 mi East 3.5 mph - N/A   Clear
4:53 AM 64.0 °F - 61.0 °F 90% 30.07 in 10.0 mi East 3.5 mph - N/A   Clear
5:53 AM 64.0 °F - 61.0 °F 90% 30.08 in 10.0 mi Calm Calm - N/A   Clear
6:53 AM 64.0 °F - 61.0 °F 90% 30.09 in 10.0 mi Calm Calm - N/A   Clear
7:53 AM 64.0 °F - 61.0 °F 90% 30.11 in 10.0 mi East 3.5 mph - N/A   Clear
8:53 AM 70.0 °F - 63.0 °F 78% 30.12 in 10.0 mi East 5.8 mph - N/A   Clear
9:53 AM 73.9 °F - 63.0 °F 68% 30.13 in 10.0 mi ESE 8.1 mph - N/A   Clear
10:53 AM 78.1 °F - 64.9 °F 64% 30.15 in 10.0 mi ESE 8.1 mph - N/A   Partly Cloudy
11:53 AM 81.0 °F 82.2 °F 63.0 °F 54% 30.14 in 10.0 mi SE 9.2 mph 18.4 mph N/A   Scattered Clouds
12:53 PM 82.0 °F 82.7 °F 61.0 °F 49% 30.13 in 10.0 mi ESE 8.1 mph - N/A   Mostly Cloudy
1:53 PM 82.9 °F 82.8 °F 59.0 °F 44% 30.10 in 10.0 mi ESE 10.4 mph - N/A   Mostly Cloudy
2:53 PM 84.9 °F 83.9 °F 57.0 °F 38% 30.08 in 10.0 mi ESE 10.4 mph - N/A   Scattered Clouds
3:53 PM 86.0 °F 84.7 °F 55.9 °F 36% 30.06 in 10.0 mi ESE 4.6 mph - N/A   Partly Cloudy
4:53 PM 84.9 °F 84.2 °F 57.9 °F 40% 30.06 in 10.0 mi ESE 11.5 mph - N/A   Mostly Cloudy
5:53 PM 81.0 °F 81.6 °F 60.1 °F 49% 30.06 in 10.0 mi SW 5.8 mph - N/A   Overcast
6:53 PM 80.1 °F 80.6 °F 57.9 °F 47% 30.06 in 10.0 mi Calm Calm - N/A   Overcast
7:53 PM 79.0 °F - 62.1 °F 56% 30.08 in 10.0 mi ESE 9.2 mph - N/A   Overcast
8:53 PM 77.0 °F - 62.1 °F 60% 30.09 in 10.0 mi East 5.8 mph - N/A   Overcast
9:53 PM 75.0 °F - 63.0 °F 66% 30.11 in 10.0 mi East 6.9 mph - N/A   Clear
10:53 PM 73.9 °F - 63.0 °F 68% 30.11 in 10.0 mi East 10.4 mph - N/A   Clear
11:53 PM 72.0 °F - 64.0 °F 76% 30.11 in 10.0 mi East 6.9 mph - N/A   Clear